Location: Unspecified
(40.5530°N, 74.2920°W)
Time: 14:27:56
(UTC+00:00)

Daily predictions for brighter satellites

Satellite Brightness Start Highest point End
(mag) Time Altitude Azimuth Time Altitude Azimuth Time Altitude Azimuth
USA 267 3.7 22:51:18 10° ESE 22:57:30 47° NNE 23:03:43 10° NW
Okean O Rocket 2.9 22:57:57 10° ESE 23:01:10 21° ENE 23:04:25 10° NNE
Cosmos 540 Rocket 3.6 22:57:29 10° NNW 23:02:37 83° WSW 23:07:42 10° SSE
Meteor 2-10 4.2 22:58:09 10° S 23:03:43 63° E 23:09:09 10° NNE
Cosmos 1726 2.4 23:00:29 10° SSE 23:03:57 43° E 23:07:26 10° NNE
Cosmos 968 Rocket 4.2 23:01:03 10° SSE 23:05:39 32° E 23:10:16 10° NE
ARGOS 4.2 23:00:41 10° S 23:05:52 52° W 23:11:07 10° NNW
PSLV R/B 3.9 23:03:37 10° SE 23:07:08 45° ENE 23:10:38 10° N
SKYMED 2 3.6 23:03:28 10° NNE 23:07:50 85° ESE 23:12:11 10° SSW
Cosmos 1809 Rocket 4.4 23:02:42 10° S 23:08:42 66° E 23:14:43 10° NNE
Cosmos 1470 4.2 23:09:29 10° SE 23:11:54 16° E 23:14:20 10° NE
CZ-4 R/B 4.4 23:09:29 10° SSE 23:13:33 71° ENE 23:17:39 10° N
Cosmos 1378 Rocket 3.5 23:18:08 10° N 23:22:28 62° E 23:26:44 10° SSE
Meteor 2-5 Rocket 4.5 23:19:48 10° NNE 23:24:34 29° ENE 23:29:19 10° SE
Nadezhda 4 Rocket 4.0 23:20:35 10° S 23:26:47 61° E 23:33:00 10° NNE
Cosmos 2322 Rocket 2.9 23:21:57 10° SSE 23:26:56 32° ESE 23:31:57 10° NE
Cosmos 841 Rocket 3.7 23:25:04 10° NNW 23:30:14 74° WSW 23:35:20 10° S
Cosmos 1733 Rocket 4.2 23:27:14 10° SSW 23:31:32 49° W 23:35:52 10° N
ARGOS Delta rocket 3.9 23:27:02 10° NNE 23:32:15 78° E 23:37:07 10° S
CZ-4B R/B 3.2 23:27:19 10° SSE 23:32:37 64° ENE 23:38:03 10° N
Cosmos 1980 Rocket 3.6 23:27:35 10° SW 23:32:52 40° WNW 23:38:10 10° N
Cosmos 2285 Rocket 4.1 23:32:00 10° NNW 23:38:17 59° ENE 23:44:34 10° SSE
HJ-1C 3.2 23:37:24 10° SSE 23:40:26 54° ENE 23:43:28 10° N
Cosmos 2221 Rocket 4.4 23:37:17 10° NNW 23:41:45 57° W 23:46:11 10° S
COBE Rocket 3.8 23:38:48 10° SSE 23:43:40 85° ENE 23:48:26 10° N
Cosmos 2292 Rocket 3.8 23:40:08 10° S 23:45:31 58° E 23:49:37 10° NNE
Landsat 5 4.4 23:43:35 10° NE 23:47:29 29° E 23:51:16 10° SSE
SJ-6B 4.3 23:48:42 19° NE 23:48:42 19° NE 23:50:48 10° NNE
Timation 2 Rocket 4.2 23:41:58 10° NNW 23:48:19 72° WSW 23:54:22 10° SSE
Cosmos 1437 Rocket 2.5 23:45:48 10° S 23:49:32 74° E 23:53:16 10° NNE
NOSS 3-3 (A) 4.4 23:46:58 10° S 23:51:42 32° ESE 23:55:16 17° ENE
NOSS 3-3 (C) 4.4 23:47:06 10° S 23:51:48 31° ESE 23:55:11 18° ENE
BREEZE-M TANK 4.1 23:46:21 10° SSW 23:55:17 30° SSE 23:57:00 24° ESE
